Location: ČR
(50.0000°N, 15.0000°E)
Time: 15:14:04
(UTC+01:00)

Courier 1B - Pass Details

Date: 11 February 2026
Orbit: 962 x 1208 km, 28.3° (Epoch: 16 March)

Event Time Altitude Azimuth Distance (km) Brightness Sun altitude
Rises 22:26:25 0° 214° (SSW) 4,084 - -47.7°
Reaches altitude 10° 22:32:02 10° 182° (S) 3,138 - -48.2°
Maximum altitude 22:34:02 11° 167° (SSE) 3,054 - -48.4°
Drops below altitude 10° 22:36:02 10° 152° (SSE) 3,136 - -48.6°
Sets 22:41:38 0° 120° (ESE) 4,079 - -49.2°
